Location: Peterborough
(44.3091°N, 78.3197°W)
Time: 03:23:38
(UTC-04:00)

S-56A Canister/Altair - Pass Details

Date: 30 March 2023
Orbit: 639 x 2492 km, 38.9° (Epoch: 08 June)

Event Time Altitude Azimuth Distance (km) Brightness Sun altitude
Rises 23:49:49 0° 281° (W) 5,619 12.4 -38.1°
Reaches altitude 10° 23:53:22 10° 276° (W) 4,794 11.9 -38.4°
Enters shadow 00:05:26 50° 221° (SW) 2,980 10.1 -39.4°
Maximum altitude 00:06:41 50° 208° (SSW) 2,964 - -39.5°
Drops below altitude 10° 00:20:31 10° 139° (SE) 4,949 - -40.3°
Sets 00:24:16 0° 134° (SE) 5,806 - -40.5°
